Location: Aulus
(42.7909°N, 1.3399°E)
Time: 16:22:15
(UTC+00:00)

Cosmos 2366 rocket - Pass Details

Date: 19 May 2025
Orbit: 955 x 996 km, 82.9° (Epoch: 12 June)

Event Time Altitude Azimuth Distance (km) Brightness Sun altitude
Rises 21:08:59 0° 354° (N) 3,725 8.0 -17.0°
Reaches altitude 10° 21:11:34 10° 358° (N) 2,770 7.1 -17.3°
Maximum altitude 21:17:53 64° 80° (E) 1,090 4.1 -18.0°
Enters shadow 21:21:09 29° 152° (SSE) 1,711 4.7 -18.4°
